Regional Weather Roundup
Issued by NWS Little Rock, AR

Home | Current Version | Previous Version | Graphics & Text | Print | Product List | Glossary On
Versions: 1 2 3 4 5 6 7 8 9 10 11 12 13 14 15 16 17 18 19 20 21 22 23 24 25 26 27 28 29 30 31 32 33 34 35 36 37 38 39 40 41 42 43 44 45 46 47 48 49 50
000
ASUS44 KLZK 060305
RWRLZK

WEATHER ROUNDUP FOR ARKANSAS
NATIONAL WEATHER SERVICE LITTLE ROCK AR
1000 PM CDT SUN JUL 05 2015

NOTE: "FAIR" INDICATES FEW OR NO CLOUDS BELOW 12,000 FEET WITH NO
SIGNIFICANT WEATHER AND/OR OBSTRUCTIONS TO VISIBILITY.

ARZ001-003-010-029-060400-
NORTHWEST ARKANSAS

CITY           SKY/WX    TMP DP  RH WIND       PRES   REMARKS
FAYETTEVILLE   MOCLDY    72  65  78 E5        30.02R
FORT SMITH     CLOUDY    73  68  84 E7        29.99R THUNDER
HARRISON       PTCLDY    70  69  97 SE8       30.05R
BENTONVILLE    MOCLDY    75  64  69 S7        30.02R
ROGERS         MOCLDY    74  67  78 SE9       30.03R
SILOAM SPGS    MOCLDY    72  64  78 SE6       30.02R
HIGHFILL       MOCLDY    75  67  76 S12       30.01R
$$

ARZ004-005-016-060400-
NORTH CENTRAL ARKANSAS

CITY           SKY/WX    TMP DP  RH WIND       PRES   REMARKS
BATESVILLE     MOCLDY    75  72  88 SE7       30.05S
FLIPPIN          N/A     77  72  83 CALM      30.01R
MTN HOME       CLOUDY    76  74  93 S3        30.03R
$$

ARZ040-041-060400-
WEST CENTRAL ARKANSAS

CITY           SKY/WX    TMP DP  RH WIND       PRES   REMARKS
MENA           CLOUDY    79  72  78 S3        30.04F
MOUNT IDA      MOCLDY    75  70  84 VRB3      30.03S
$$

ARZ009-017-025-026-028-060400-
NORTHEAST ARKANSAS

CITY           SKY/WX    TMP DP  RH WIND       PRES   REMARKS
JONESBORO      CLEAR     76  72  87 SW9       30.04S
NEWPORT        CLEAR     76  75  96 S6        30.06R
WALNUT RIDGE   PTCLDY    75  72  88 S8        30.04R
BLYTHEVILLE    CLEAR     76  74  93 SW5       30.06R
$$

ARZ022-023-033-042-044-060400-
CENTRAL ARKANSAS

CITY           SKY/WX    TMP DP  RH WIND       PRES   REMARKS
LITTLE ROCK    PTCLDY    74  68  81 S6        30.06S
N LITTLE ROCK  PTCLDY    74  71  89 S9        30.06S
SEARCY         CLEAR     75  72  90 S10       30.07S
HOT SPRINGS    PTCLDY    75  70  84 CALM      30.05F
RUSSELLVILLE   MOCLDY    75  72  90 SE6       30.03R
CLINTON        FAIR      75  73  94 CALM      30.06F
$$

ARZ036-060400-
EAST ARKANSAS

CITY           SKY/WX    TMP DP  RH WIND       PRES   REMARKS
WEST MEMPHIS   CLEAR     74  73  97 S7        30.06R
$$

ARZ050-053-066-070-073-060400-
SOUTHWEST ARKANSAS

CITY           SKY/WX    TMP DP  RH WIND       PRES   REMARKS
ARKADELPHIA    FAIR      73  73 100 CALM      30.04F
CAMDEN         PTCLDY    68  66  94 CALM      30.05R
TEXARKANA      CLOUDY    75  70  84 S8        30.03F
EL DORADO      MOCLDY    69  68  96 S3        30.04F
DE QUEEN       MOCLDY    76  71  85 MISG      30.01R
$$

ARZ056-057-069-060400-
SOUTHEAST ARKANSAS

CITY           SKY/WX    TMP DP  RH WIND       PRES   REMARKS
PINE BLUFF     CLEAR     71  67  87 S5        30.06F
STUTTGART      PTCLDY    75  70  83 MISG      30.05S
MONTICELLO     PTCLDY    69  69 100 CALM      30.06F

$$




USA.gov is the U.S. government's official web portal to all federal, state and local government web resources and services.